Jean Philippe Monclin

Jean Philippe Monclin

Statistiques 2026

  • Courses courues : 73
  • Nb de victoires : 16
  • Nb de places : 33
  • Écart gagnant : 2
  • Réussite à la gagne : 22%
  • Réussite à la place : 45%
Musique : 0a 4a 1a 6a Da 3a Da 3a 1a 1a 3a 5a 2a 2a 0a Da 0a 2a
DateRangCatégorieAlloc.Dist.HippodromeChevalRed. KmSpé.
09/03/17 2 Trot 16 000€ 2 225m Laval Edelweiss Park 1'16"3 Attelé
07/04/17 1 Trot 16 000€ 2 875m Laval Claudius 1'15"4 Attelé
07/04/17 2 Trot 15 000€ 2 875m Laval Deveria 1'16"9 Attelé
07/04/17 8 Trot 12 000€ 2 875m Laval Explosion 1'19"4 Attelé
07/04/17 4 Trot 22 000€ 2 875m Laval Primula Brazza' 1'15"6 Attelé
07/04/17 1 Trot 12 000€ 2 875m Laval Easy Cash 1'18"1 Attelé
27/04/17 D Trot 21 000€ 2 875m Laval Balthazar de Ginai Attelé
27/04/17 3 Trot 20 000€ 2 875m Laval Daddy Cut 1'16"9 Attelé
27/04/17 1 Trot 21 000€ 2 875m Laval Easy Cash 1'19"7 Attelé
05/05/17 D Trot 30 000€ 2 875m Laval Santiago d'Ete Attelé
05/05/17 D Trot 18 000€ 2 875m Laval Bayokos Atout Attelé
05/05/17 1 Trot 18 000€ 2 875m Laval Claudius 1'15"6 Attelé
05/05/17 1 Trot 18 000€ 2 875m Laval Doff Jim 1'17"2 Attelé
05/05/17 1 Trot 18 000€ 2 875m Laval Edite Gede 1'18"0 Attelé
07/06/17 0 Trot 90 000€ 2 875m Laval Urgos du Cedre Attelé lire

Après avoir figuré, a nettement faibli dans la phase finale.

07/06/17 D Trot 21 000€ 2 900m Laval Cherif Griff Attelé lire

Après avoir figuré, a conclu correctement pour prendre la quatrième place mais, pas au trot.

07/06/17 6 Trot 20 000€ 2 875m Laval Defi du Granit 1'15"6 Attelé lire

A rejoint les animateurs aux tribunes, puis a faibli nettement dans la phase finale.

16/06/17 1 Trot 25 000€ 2 875m Laval Brio de Faverol 1'14"6 Attelé
16/06/17 5 Trot 20 000€ 2 875m Laval Chuck de Larchamp 1'14"8 Attelé
16/06/17 8 Trot 20 000€ 2 875m Laval Candela Gede 1'16"1 Attelé
16/06/17 D Trot 19 000€ 2 875m Laval Dryas du Goutier Attelé
16/06/17 7 Trot 19 000€ 2 875m Laval Deveria 1'16"1 Attelé
16/06/17 D Trot 19 000€ 2 875m Laval Esteban Caballo Attelé
28/06/17 D Trot 18 000€ 2 875m Laval Eternal Flame Attelé
28/06/17 D Trot 21 000€ 2 875m Laval Cimarron Attelé
28/06/17 4 Trot 21 000€ 2 875m Laval Dream des Rioults 1'16"6 Attelé
28/06/17 2 Trot 25 000€ 2 875m Laval Baraka de Bougy 1'14"6 Attelé
29/08/17 0 Trot 25 000€ 2 875m Laval Anoa Attelé
29/08/17 5 Trot 18 000€ 2 875m Laval Cadence Del Fretta 1'14"6 Attelé
29/08/17 7 Trot 20 000€ 2 875m Laval Darling Merite 1'16"0 Attelé
29/08/17 4 Trot 19 000€ 2 875m Laval Epsom Speed 1'17"3 Attelé
01/09/17 D Trot 13 000€ 2 875m Laval Etoile du Granit Attelé
01/09/17 3 Trot 18 000€ 2 875m Laval Cocaan de Guegue 1'15"8 Attelé
01/09/17 2 Trot 14 000€ 2 875m Laval Dahir de Line 1'16"1 Attelé
01/09/17 6 Trot 14 000€ 2 875m Laval Delta Gede 1'17"5 Attelé
07/10/17 2 Trot 25 000€ 2 875m Laval Team Monceau 1'15"9 Attelé
07/10/17 3 Trot 20 000€ 2 875m Laval Boss du Marny 1'15"2 Attelé
07/10/17 0 Trot 21 000€ 2 875m Laval Chuck de Larchamp Attelé
07/10/17 4 Trot 20 000€ 2 875m Laval Belle d'hermes 1'15"1 Attelé
07/10/17 3 Trot 20 000€ 2 875m Laval Derby d'Urzy 1'19"1 Attelé
13/10/17 7 Trot 14 000€ 2 875m Laval Estime Moi 1'18"1 Attelé
13/10/17 4 Trot 30 000€ 2 875m Laval Cronos d'hameline 1'15"3 Attelé
13/10/17 2 Trot 16 000€ 2 875m Laval Do You Love Me 1'14"6 Attelé
24/06/15 3 Trot 21 000€ 2 875m Laval Ablette Jihem 1'15"2 Attelé
26/06/15 1 Trot 13 000€ 2 875m Laval Cicerono 1'18"0 Attelé
26/06/15 D Trot 13 000€ 2 875m Laval Cool du Caux Attelé
26/06/15 0 Trot 20 000€ 2 875m Laval Api d'Avignere Attelé
26/06/15 D Trot 14 000€ 2 875m Laval Banzai de Mone Attelé
29/08/15 7 Trot 13 000€ 2 875m Laval Colonel Chanlecy 1'17"4 Attelé
29/08/15 5 Trot 15 000€ 2 900m Laval Aimant 1'15"0 Attelé